owner,sensor,date,latitude,longitude,sea_surface_height_above_sea_level,qcFlag 
COMPS,ioos:station:USF.COMPS:SHP:1,2010-02-03T15:00:00Z,30.0600,-84.2910,-0.662,1111122 
COMPS,ioos:station:USF.COMPS:SHP:1,2010-02-03T15:06:00Z,30.0600,-84.2910,-0.68,1111122 
COMPS,ioos:station:USF.COMPS:SHP:1,2010-02-03T15:12:00Z,30.0600,-84.2910,-0.692,1111122 
COMPS,ioos:station:USF.COMPS:SHP:1,2010-02-03T15:18:00Z,30.0600,-84.2910,-0.7,1111122 
COMPS,ioos:station:USF.COMPS:SHP:1,2010-02-03T15:24:00Z,30.0600,-84.2910,-0.708,1111122 
COMPS,ioos:station:USF.COMPS:SHP:1,2010-02-03T15:30:00Z,30.0600,-84.2910,-0.713,1111122 
COMPS,ioos:station:USF.COMPS:SHP:1,2010-02-03T15:36:00Z,30.0600,-84.2910,-0.71,1111122 
COMPS,ioos:station:USF.COMPS:SHP:1,2010-02-03T15:42:00Z,30.0600,-84.2910,-0.706,1111122 
COMPS,ioos:station:USF.COMPS:SHP:1,2010-02-03T15:48:00Z,30.0600,-84.2910,-0.702,1111122 
COMPS,ioos:station:USF.COMPS:SHP:1,2010-02-03T15:54:00Z,30.0600,-84.2910,-0.7,1111122 
COMPS,ioos:station:USF.COMPS:SHP:1,2010-02-03T16:00:00Z,30.0600,-84.2910,-0.696,1111122 
COMPS,ioos:station:USF.COMPS:SHP:1,2010-02-03T16:06:00Z,30.0600,-84.2910,-0.695,1111122 
COMPS,ioos:station:USF.COMPS:SHP:1,2010-02-03T16:12:00Z,30.0600,-84.2910,-0.702,1111122 
COMPS,ioos:station:USF.COMPS:SHP:1,2010-02-03T16:18:00Z,30.0600,-84.2910,-0.705,1111122 
COMPS,ioos:station:USF.COMPS:SHP:1,2010-02-03T16:24:00Z,30.0600,-84.2910,-0.697,1111122 
COMPS,ioos:station:USF.COMPS:SHP:1,2010-02-03T16:30:00Z,30.0600,-84.2910,-0.687,1111122 
COMPS,ioos:station:USF.COMPS:SHP:1,2010-02-03T16:36:00Z,30.0600,-84.2910,-0.679,1111122 
COMPS,ioos:station:USF.COMPS:SHP:1,2010-02-03T16:42:00Z,30.0600,-84.2910,-0.668,1111122 
COMPS,ioos:station:USF.COMPS:SHP:1,2010-02-03T16:48:00Z,30.0600,-84.2910,-0.654,1111122 
COMPS,ioos:station:USF.COMPS:SHP:1,2010-02-03T16:54:00Z,30.0600,-84.2910,-0.64,1111122 
COMPS,ioos:station:USF.COMPS:SHP:1,2010-02-03T17:00:00Z,30.0600,-84.2910,-0.627,1111122 
COMPS,ioos:station:USF.COMPS:SHP:1,2010-02-03T17:06:00Z,30.0600,-84.2910,-0.608,1111122 
COMPS,ioos:station:USF.COMPS:SHP:1,2010-02-03T17:12:00Z,30.0600,-84.2910,-0.589,1111122 
COMPS,ioos:station:USF.COMPS:SHP:1,2010-02-03T17:18:00Z,30.0600,-84.2910,-0.574,1111122 
COMPS,ioos:station:USF.COMPS:SHP:1,2010-02-03T17:24:00Z,30.0600,-84.2910,-0.561,1111122 
COMPS,ioos:station:USF.COMPS:SHP:1,2010-02-03T17:30:00Z,30.0600,-84.2910,-0.549,1111122 
COMPS,ioos:station:USF.COMPS:SHP:1,2010-02-03T17:36:00Z,30.0600,-84.2910,-0.536,1111122 
COMPS,ioos:station:USF.COMPS:SHP:1,2010-02-03T17:42:00Z,30.0600,-84.2910,-0.527,1111122 
COMPS,ioos:station:USF.COMPS:SHP:1,2010-02-03T17:48:00Z,30.0600,-84.2910,-0.513,1111122 
COMPS,ioos:station:USF.COMPS:SHP:1,2010-02-03T17:54:00Z,30.0600,-84.2910,-0.496,1111122 
COMPS,ioos:station:USF.COMPS:SHP:1,2010-02-03T18:00:00Z,30.0600,-84.2910,-0.472,1111122 
COMPS,ioos:station:USF.COMPS:SHP:1,2010-02-03T18:06:00Z,30.0600,-84.2910,-0.443,1111122 
COMPS,ioos:station:USF.COMPS:SHP:1,2010-02-03T18:12:00Z,30.0600,-84.2910,-0.419,1111122 
COMPS,ioos:station:USF.COMPS:SHP:1,2010-02-03T18:18:00Z,30.0600,-84.2910,-0.398,1111122 
COMPS,ioos:station:USF.COMPS:SHP:1,2010-02-03T18:24:00Z,30.0600,-84.2910,-0.372,1111122 
COMPS,ioos:station:USF.COMPS:SHP:1,2010-02-03T18:30:00Z,30.0600,-84.2910,-0.347,1111122 
COMPS,ioos:station:USF.COMPS:SHP:1,2010-02-03T18:36:00Z,30.0600,-84.2910,-0.326,1111122 
COMPS,ioos:station:USF.COMPS:SHP:1,2010-02-03T18:42:00Z,30.0600,-84.2910,-0.299,1111122 
COMPS,ioos:station:USF.COMPS:SHP:1,2010-02-03T18:48:00Z,30.0600,-84.2910,-0.279,1111122 
COMPS,ioos:station:USF.COMPS:SHP:1,2010-02-03T18:54:00Z,30.0600,-84.2910,-0.252,1111122 
COMPS,ioos:station:USF.COMPS:SHP:1,2010-02-03T19:00:00Z,30.0600,-84.2910,-0.216,1111122 
COMPS,ioos:station:USF.COMPS:SHP:1,2010-02-03T19:06:00Z,30.0600,-84.2910,-0.185,1111122 
COMPS,ioos:station:USF.COMPS:SHP:1,2010-02-03T19:12:00Z,30.0600,-84.2910,-0.158,1111122 
COMPS,ioos:station:USF.COMPS:SHP:1,2010-02-03T19:18:00Z,30.0600,-84.2910,-0.124,1111122 
COMPS,ioos:station:USF.COMPS:SHP:1,2010-02-03T19:24:00Z,30.0600,-84.2910,-0.099,1111122 
COMPS,ioos:station:USF.COMPS:SHP:1,2010-02-03T19:30:00Z,30.0600,-84.2910,-0.085,1111122 
COMPS,ioos:station:USF.COMPS:SHP:1,2010-02-03T19:36:00Z,30.0600,-84.2910,-0.062,1111122 
COMPS,ioos:station:USF.COMPS:SHP:1,2010-02-03T19:42:00Z,30.0600,-84.2910,-0.035,1111122 
COMPS,ioos:station:USF.COMPS:SHP:1,2010-02-03T19:48:00Z,30.0600,-84.2910,-0.014,1111122 
COMPS,ioos:station:USF.COMPS:SHP:1,2010-02-03T19:54:00Z,30.0600,-84.2910,0.005,1111122 
COMPS,ioos:station:USF.COMPS:SHP:1,2010-02-03T20:00:00Z,30.0600,-84.2910,0.034,1111122 
COMPS,ioos:station:USF.COMPS:SHP:1,2010-02-03T20:06:00Z,30.0600,-84.2910,0.059,1111122 
COMPS,ioos:station:USF.COMPS:SHP:1,2010-02-03T20:12:00Z,30.0600,-84.2910,0.08,1111122 
COMPS,ioos:station:USF.COMPS:SHP:1,2010-02-03T20:18:00Z,30.0600,-84.2910,0.108,1111122 
COMPS,ioos:station:USF.COMPS:SHP:1,2010-02-03T20:24:00Z,30.0600,-84.2910,0.138,1111122 
COMPS,ioos:station:USF.COMPS:SHP:1,2010-02-03T20:30:00Z,30.0600,-84.2910,0.172,1111122 
COMPS,ioos:station:USF.COMPS:SHP:1,2010-02-03T20:36:00Z,30.0600,-84.2910,0.187,1111122 
COMPS,ioos:station:USF.COMPS:SHP:1,2010-02-03T20:42:00Z,30.0600,-84.2910,0.207,1111122 
COMPS,ioos:station:USF.COMPS:SHP:1,2010-02-03T20:48:00Z,30.0600,-84.2910,0.228,1111122 
COMPS,ioos:station:USF.COMPS:SHP:1,2010-02-03T20:54:00Z,30.0600,-84.2910,0.246,1111122 
COMPS,ioos:station:USF.COMPS:SHP:1,2010-02-03T21:00:00Z,30.0600,-84.2910,0.261,1111122 
COMPS,ioos:station:USF.COMPS:SHP:1,2010-02-03T21:06:00Z,30.0600,-84.2910,0.273,1111122 
COMPS,ioos:station:USF.COMPS:SHP:1,2010-02-03T21:12:00Z,30.0600,-84.2910,0.289,1111122 
COMPS,ioos:station:USF.COMPS:SHP:1,2010-02-03T21:18:00Z,30.0600,-84.2910,0.314,1111122 
COMPS,ioos:station:USF.COMPS:SHP:1,2010-02-03T21:24:00Z,30.0600,-84.2910,0.329,1111122 
COMPS,ioos:station:USF.COMPS:SHP:1,2010-02-03T21:30:00Z,30.0600,-84.2910,0.341,1111122 
COMPS,ioos:station:USF.COMPS:SHP:1,2010-02-03T21:36:00Z,30.0600,-84.2910,0.353,1111122 
COMPS,ioos:station:USF.COMPS:SHP:1,2010-02-03T21:42:00Z,30.0600,-84.2910,0.359,1111122 
COMPS,ioos:station:USF.COMPS:SHP:1,2010-02-03T21:48:00Z,30.0600,-84.2910,0.368,1111122 
COMPS,ioos:station:USF.COMPS:SHP:1,2010-02-03T21:54:00Z,30.0600,-84.2910,0.385,1111122 
COMPS,ioos:station:USF.COMPS:SHP:1,2010-02-03T22:00:00Z,30.0600,-84.2910,0.388,1111122 
COMPS,ioos:station:USF.COMPS:SHP:1,2010-02-03T22:06:00Z,30.0600,-84.2910,0.38,1111122 
COMPS,ioos:station:USF.COMPS:SHP:1,2010-02-03T22:12:00Z,30.0600,-84.2910,0.385,1111122 
COMPS,ioos:station:USF.COMPS:SHP:1,2010-02-03T22:18:00Z,30.0600,-84.2910,0.389,1111122 
COMPS,ioos:station:USF.COMPS:SHP:1,2010-02-03T22:24:00Z,30.0600,-84.2910,0.377,1111122 
COMPS,ioos:station:USF.COMPS:SHP:1,2010-02-03T22:30:00Z,30.0600,-84.2910,0.374,1111122 
COMPS,ioos:station:USF.COMPS:SHP:1,2010-02-03T22:36:00Z,30.0600,-84.2910,0.386,1111122 
COMPS,ioos:station:USF.COMPS:SHP:1,2010-02-03T22:42:00Z,30.0600,-84.2910,0.395,1111122 
COMPS,ioos:station:USF.COMPS:SHP:1,2010-02-03T22:48:00Z,30.0600,-84.2910,0.379,1111122 
COMPS,ioos:station:USF.COMPS:SHP:1,2010-02-03T22:54:00Z,30.0600,-84.2910,0.361,1111122 
COMPS,ioos:station:USF.COMPS:SHP:1,2010-02-03T23:00:00Z,30.0600,-84.2910,0.339,1111122 
COMPS,ioos:station:USF.COMPS:SHP:1,2010-02-03T23:06:00Z,30.0600,-84.2910,0.314,1111122 
COMPS,ioos:station:USF.COMPS:SHP:1,2010-02-03T23:12:00Z,30.0600,-84.2910,0.304,1111122 
COMPS,ioos:station:USF.COMPS:SHP:1,2010-02-03T23:18:00Z,30.0600,-84.2910,0.319,1111122 
COMPS,ioos:station:USF.COMPS:SHP:1,2010-02-03T23:24:00Z,30.0600,-84.2910,0.317,1111122 
COMPS,ioos:station:USF.COMPS:SHP:1,2010-02-03T23:30:00Z,30.0600,-84.2910,0.293,1111122 
COMPS,ioos:station:USF.COMPS:SHP:1,2010-02-03T23:36:00Z,30.0600,-84.2910,0.262,1111122 
COMPS,ioos:station:USF.COMPS:SHP:1,2010-02-03T23:42:00Z,30.0600,-84.2910,0.237,1111122 
COMPS,ioos:station:USF.COMPS:SHP:1,2010-02-03T23:48:00Z,30.0600,-84.2910,0.22,1111122 
COMPS,ioos:station:USF.COMPS:SHP:1,2010-02-03T23:54:00Z,30.0600,-84.2910,0.221,1111122 
COMPS,ioos:station:USF.COMPS:SHP:1,2010-02-04T00:00:00Z,30.0600,-84.2910,0.209,1111122 
COMPS,ioos:station:USF.COMPS:SHP:1,2010-02-04T00:06:00Z,30.0600,-84.2910,0.179,1111122 
COMPS,ioos:station:USF.COMPS:SHP:1,2010-02-04T00:12:00Z,30.0600,-84.2910,0.142,1111122 
COMPS,ioos:station:USF.COMPS:SHP:1,2010-02-04T00:18:00Z,30.0600,-84.2910,0.117,1111122 
COMPS,ioos:station:USF.COMPS:SHP:1,2010-02-04T00:24:00Z,30.0600,-84.2910,0.094,1111122 
COMPS,ioos:station:USF.COMPS:SHP:1,2010-02-04T00:30:00Z,30.0600,-84.2910,0.071,1111122 
COMPS,ioos:station:USF.COMPS:SHP:1,2010-02-04T00:36:00Z,30.0600,-84.2910,0.059,1111122 
COMPS,ioos:station:USF.COMPS:SHP:1,2010-02-04T00:42:00Z,30.0600,-84.2910,0.03,1111122 
COMPS,ioos:station:USF.COMPS:SHP:1,2010-02-04T00:48:00Z,30.0600,-84.2910,0.002,1111122 
COMPS,ioos:station:USF.COMPS:SHP:1,2010-02-04T00:54:00Z,30.0600,-84.2910,-0.022,1111122 
COMPS,ioos:station:USF.COMPS:SHP:1,2010-02-04T01:00:00Z,30.0600,-84.2910,-0.048,1111122 
COMPS,ioos:station:USF.COMPS:SHP:1,2010-02-04T01:06:00Z,30.0600,-84.2910,-0.072,1111122 
COMPS,ioos:station:USF.COMPS:SHP:1,2010-02-04T01:12:00Z,30.0600,-84.2910,-0.097,1111122 
COMPS,ioos:station:USF.COMPS:SHP:1,2010-02-04T01:18:00Z,30.0600,-84.2910,-0.126,1111122 
COMPS,ioos:station:USF.COMPS:SHP:1,2010-02-04T01:24:00Z,30.0600,-84.2910,-0.147,1111122 
COMPS,ioos:station:USF.COMPS:SHP:1,2010-02-04T01:30:00Z,30.0600,-84.2910,-0.167,1111122 
COMPS,ioos:station:USF.COMPS:SHP:1,2010-02-04T01:36:00Z,30.0600,-84.2910,-0.197,1111122 
COMPS,ioos:station:USF.COMPS:SHP:1,2010-02-04T01:42:00Z,30.0600,-84.2910,-0.231,1111122 
COMPS,ioos:station:USF.COMPS:SHP:1,2010-02-04T01:48:00Z,30.0600,-84.2910,-0.258,1111122 
COMPS,ioos:station:USF.COMPS:SHP:1,2010-02-04T01:54:00Z,30.0600,-84.2910,-0.282,1111122 
COMPS,ioos:station:USF.COMPS:SHP:1,2010-02-04T02:00:00Z,30.0600,-84.2910,-0.308,1111122 
COMPS,ioos:station:USF.COMPS:SHP:1,2010-02-04T02:06:00Z,30.0600,-84.2910,-0.333,1111122 
COMPS,ioos:station:USF.COMPS:SHP:1,2010-02-04T02:12:00Z,30.0600,-84.2910,-0.354,1111122 
COMPS,ioos:station:USF.COMPS:SHP:1,2010-02-04T02:18:00Z,30.0600,-84.2910,-0.378,1111122 
COMPS,ioos:station:USF.COMPS:SHP:1,2010-02-04T02:24:00Z,30.0600,-84.2910,-0.403,1111122 
COMPS,ioos:station:USF.COMPS:SHP:1,2010-02-04T02:30:00Z,30.0600,-84.2910,-0.423,1111122 
COMPS,ioos:station:USF.COMPS:SHP:1,2010-02-04T02:36:00Z,30.0600,-84.2910,-0.441,1111122 
COMPS,ioos:station:USF.COMPS:SHP:1,2010-02-04T02:42:00Z,30.0600,-84.2910,-0.463,1111122 
COMPS,ioos:station:USF.COMPS:SHP:1,2010-02-04T02:48:00Z,30.0600,-84.2910,-0.486,1111122 
COMPS,ioos:station:USF.COMPS:SHP:1,2010-02-04T02:54:00Z,30.0600,-84.2910,-0.505,1111122 
COMPS,ioos:station:USF.COMPS:SHP:1,2010-02-04T03:00:00Z,30.0600,-84.2910,-0.524,1111122 
COMPS,ioos:station:USF.COMPS:SHP:1,2010-02-04T03:06:00Z,30.0600,-84.2910,-0.544,1111122 
COMPS,ioos:station:USF.COMPS:SHP:1,2010-02-04T03:12:00Z,30.0600,-84.2910,-0.565,1111122 
COMPS,ioos:station:USF.COMPS:SHP:1,2010-02-04T03:18:00Z,30.0600,-84.2910,-0.586,1111122 
COMPS,ioos:station:USF.COMPS:SHP:1,2010-02-04T03:24:00Z,30.0600,-84.2910,-0.604,1111122 
COMPS,ioos:station:USF.COMPS:SHP:1,2010-02-04T03:30:00Z,30.0600,-84.2910,-0.618,1111122 
COMPS,ioos:station:USF.COMPS:SHP:1,2010-02-04T03:36:00Z,30.0600,-84.2910,-0.633,1111122 
COMPS,ioos:station:USF.COMPS:SHP:1,2010-02-04T03:42:00Z,30.0600,-84.2910,-0.648,1111122 
COMPS,ioos:station:USF.COMPS:SHP:1,2010-02-04T03:48:00Z,30.0600,-84.2910,-0.662,1111122 
COMPS,ioos:station:USF.COMPS:SHP:1,2010-02-04T03:54:00Z,30.0600,-84.2910,-0.675,1111122 
COMPS,ioos:station:USF.COMPS:SHP:1,2010-02-04T04:00:00Z,30.0600,-84.2910,-0.686,1111122 
COMPS,ioos:station:USF.COMPS:SHP:1,2010-02-04T04:06:00Z,30.0600,-84.2910,-0.695,1111122 
COMPS,ioos:station:USF.COMPS:SHP:1,2010-02-04T04:12:00Z,30.0600,-84.2910,-0.703,1111122 
COMPS,ioos:station:USF.COMPS:SHP:1,2010-02-04T04:18:00Z,30.0600,-84.2910,-0.711,1111122 
COMPS,ioos:station:USF.COMPS:SHP:1,2010-02-04T04:24:00Z,30.0600,-84.2910,-0.718,1111122 
COMPS,ioos:station:USF.COMPS:SHP:1,2010-02-04T04:30:00Z,30.0600,-84.2910,-0.717,1111122 
COMPS,ioos:station:USF.COMPS:SHP:1,2010-02-04T04:36:00Z,30.0600,-84.2910,-0.71,1111122 
COMPS,ioos:station:USF.COMPS:SHP:1,2010-02-04T04:42:00Z,30.0600,-84.2910,-0.706,1111122 
COMPS,ioos:station:USF.COMPS:SHP:1,2010-02-04T04:48:00Z,30.0600,-84.2910,-0.699,1111122 
COMPS,ioos:station:USF.COMPS:SHP:1,2010-02-04T04:54:00Z,30.0600,-84.2910,-0.694,1111122 
COMPS,ioos:station:USF.COMPS:SHP:1,2010-02-04T05:00:00Z,30.0600,-84.2910,-0.686,1111122 
COMPS,ioos:station:USF.COMPS:SHP:1,2010-02-04T05:06:00Z,30.0600,-84.2910,-0.668,1111122 
COMPS,ioos:station:USF.COMPS:SHP:1,2010-02-04T05:12:00Z,30.0600,-84.2910,-0.645,1111122 
COMPS,ioos:station:USF.COMPS:SHP:1,2010-02-04T05:18:00Z,30.0600,-84.2910,-0.626,1111122 
COMPS,ioos:station:USF.COMPS:SHP:1,2010-02-04T05:24:00Z,30.0600,-84.2910,-0.604,1111122 
COMPS,ioos:station:USF.COMPS:SHP:1,2010-02-04T05:30:00Z,30.0600,-84.2910,-0.577,1111122 
COMPS,ioos:station:USF.COMPS:SHP:1,2010-02-04T05:36:00Z,30.0600,-84.2910,-0.555,1111122 
COMPS,ioos:station:USF.COMPS:SHP:1,2010-02-04T05:42:00Z,30.0600,-84.2910,-0.541,1111122 
COMPS,ioos:station:USF.COMPS:SHP:1,2010-02-04T05:48:00Z,30.0600,-84.2910,-0.525,1111122 
COMPS,ioos:station:USF.COMPS:SHP:1,2010-02-04T05:54:00Z,30.0600,-84.2910,-0.508,1111122 
COMPS,ioos:station:USF.COMPS:SHP:1,2010-02-04T06:00:00Z,30.0600,-84.2910,-0.497,1111122 
COMPS,ioos:station:USF.COMPS:SHP:1,2010-02-04T06:06:00Z,30.0600,-84.2910,-0.486,1111122 
COMPS,ioos:station:USF.COMPS:SHP:1,2010-02-04T06:12:00Z,30.0600,-84.2910,-0.471,1111122 
COMPS,ioos:station:USF.COMPS:SHP:1,2010-02-04T06:18:00Z,30.0600,-84.2910,-0.457,1111122 
COMPS,ioos:station:USF.COMPS:SHP:1,2010-02-04T06:24:00Z,30.0600,-84.2910,-0.445,1111122 
COMPS,ioos:station:USF.COMPS:SHP:1,2010-02-04T06:30:00Z,30.0600,-84.2910,-0.436,1111122 
COMPS,ioos:station:USF.COMPS:SHP:1,2010-02-04T06:36:00Z,30.0600,-84.2910,-0.421,1111122 
COMPS,ioos:station:USF.COMPS:SHP:1,2010-02-04T06:42:00Z,30.0600,-84.2910,-0.402,1111122 
COMPS,ioos:station:USF.COMPS:SHP:1,2010-02-04T06:48:00Z,30.0600,-84.2910,-0.388,1111122 
COMPS,ioos:station:USF.COMPS:SHP:1,2010-02-04T06:54:00Z,30.0600,-84.2910,-0.376,1111122 
COMPS,ioos:station:USF.COMPS:SHP:1,2010-02-04T07:00:00Z,30.0600,-84.2910,-0.359,1111122 
COMPS,ioos:station:USF.COMPS:SHP:1,2010-02-04T07:06:00Z,30.0600,-84.2910,-0.34,1111122 
COMPS,ioos:station:USF.COMPS:SHP:1,2010-02-04T07:12:00Z,30.0600,-84.2910,-0.322,1111122 
COMPS,ioos:station:USF.COMPS:SHP:1,2010-02-04T07:18:00Z,30.0600,-84.2910,-0.303,1111122 
COMPS,ioos:station:USF.COMPS:SHP:1,2010-02-04T07:24:00Z,30.0600,-84.2910,-0.281,1111122 
COMPS,ioos:station:USF.COMPS:SHP:1,2010-02-04T07:30:00Z,30.0600,-84.2910,-0.263,1111122 
COMPS,ioos:station:USF.COMPS:SHP:1,2010-02-04T07:36:00Z,30.0600,-84.2910,-0.239,1111122 
COMPS,ioos:station:USF.COMPS:SHP:1,2010-02-04T07:42:00Z,30.0600,-84.2910,-0.213,1111122 
COMPS,ioos:station:USF.COMPS:SHP:1,2010-02-04T07:48:00Z,30.0600,-84.2910,-0.187,1111122 
COMPS,ioos:station:USF.COMPS:SHP:1,2010-02-04T07:54:00Z,30.0600,-84.2910,-0.159,1111122 
COMPS,ioos:station:USF.COMPS:SHP:1,2010-02-04T08:00:00Z,30.0600,-84.2910,-0.134,1111122 
COMPS,ioos:station:USF.COMPS:SHP:1,2010-02-04T08:06:00Z,30.0600,-84.2910,-0.109,1111122 
COMPS,ioos:station:USF.COMPS:SHP:1,2010-02-04T08:12:00Z,30.0600,-84.2910,-0.095,1111122 
COMPS,ioos:station:USF.COMPS:SHP:1,2010-02-04T08:18:00Z,30.0600,-84.2910,-0.077,1111122 
COMPS,ioos:station:USF.COMPS:SHP:1,2010-02-04T08:24:00Z,30.0600,-84.2910,-0.055,1111122 
COMPS,ioos:station:USF.COMPS:SHP:1,2010-02-04T08:30:00Z,30.0600,-84.2910,-0.035,1111122 
COMPS,ioos:station:USF.COMPS:SHP:1,2010-02-04T08:36:00Z,30.0600,-84.2910,-0.022,1111122 
COMPS,ioos:station:USF.COMPS:SHP:1,2010-02-04T08:42:00Z,30.0600,-84.2910,-0.013,1111122 
COMPS,ioos:station:USF.COMPS:SHP:1,2010-02-04T08:48:00Z,30.0600,-84.2910,0.001,1111122 
COMPS,ioos:station:USF.COMPS:SHP:1,2010-02-04T08:54:00Z,30.0600,-84.2910,0.017,1111122 
COMPS,ioos:station:USF.COMPS:SHP:1,2010-02-04T09:00:00Z,30.0600,-84.2910,0.038,1111122 
COMPS,ioos:station:USF.COMPS:SHP:1,2010-02-04T09:06:00Z,30.0600,-84.2910,0.057,1111122 
COMPS,ioos:station:USF.COMPS:SHP:1,2010-02-04T09:12:00Z,30.0600,-84.2910,0.076,1111122 
COMPS,ioos:station:USF.COMPS:SHP:1,2010-02-04T09:18:00Z,30.0600,-84.2910,0.102,1111122 
COMPS,ioos:station:USF.COMPS:SHP:1,2010-02-04T09:24:00Z,30.0600,-84.2910,0.113,1111122 
COMPS,ioos:station:USF.COMPS:SHP:1,2010-02-04T09:30:00Z,30.0600,-84.2910,0.117,1111122 
COMPS,ioos:station:USF.COMPS:SHP:1,2010-02-04T09:36:00Z,30.0600,-84.2910,0.127,1111122 
COMPS,ioos:station:USF.COMPS:SHP:1,2010-02-04T09:42:00Z,30.0600,-84.2910,0.14,1111122 
COMPS,ioos:station:USF.COMPS:SHP:1,2010-02-04T09:48:00Z,30.0600,-84.2910,0.161,1111122 
COMPS,ioos:station:USF.COMPS:SHP:1,2010-02-04T09:54:00Z,30.0600,-84.2910,0.189,1111122 
COMPS,ioos:station:USF.COMPS:SHP:1,2010-02-04T10:00:00Z,30.0600,-84.2910,0.205,1111122 
COMPS,ioos:station:USF.COMPS:SHP:1,2010-02-04T10:06:00Z,30.0600,-84.2910,0.214,1111122 
COMPS,ioos:station:USF.COMPS:SHP:1,2010-02-04T10:12:00Z,30.0600,-84.2910,0.222,1111122 
COMPS,ioos:station:USF.COMPS:SHP:1,2010-02-04T10:18:00Z,30.0600,-84.2910,0.227,1111122 
COMPS,ioos:station:USF.COMPS:SHP:1,2010-02-04T10:24:00Z,30.0600,-84.2910,0.234,1111122 
COMPS,ioos:station:USF.COMPS:SHP:1,2010-02-04T10:30:00Z,30.0600,-84.2910,0.241,1111122 
COMPS,ioos:station:USF.COMPS:SHP:1,2010-02-04T10:36:00Z,30.0600,-84.2910,0.251,1111122 
COMPS,ioos:station:USF.COMPS:SHP:1,2010-02-04T10:42:00Z,30.0600,-84.2910,0.256,1111122 
COMPS,ioos:station:USF.COMPS:SHP:1,2010-02-04T10:48:00Z,30.0600,-84.2910,0.259,1111122 
COMPS,ioos:station:USF.COMPS:SHP:1,2010-02-04T10:54:00Z,30.0600,-84.2910,0.257,1111122 
COMPS,ioos:station:USF.COMPS:SHP:1,2010-02-04T11:00:00Z,30.0600,-84.2910,0.253,1111122 
COMPS,ioos:station:USF.COMPS:SHP:1,2010-02-04T11:06:00Z,30.0600,-84.2910,0.266,1111122 
COMPS,ioos:station:USF.COMPS:SHP:1,2010-02-04T11:12:00Z,30.0600,-84.2910,0.261,1111122 
COMPS,ioos:station:USF.COMPS:SHP:1,2010-02-04T11:18:00Z,30.0600,-84.2910,0.256,1111122 
COMPS,ioos:station:USF.COMPS:SHP:1,2010-02-04T11:24:00Z,30.0600,-84.2910,0.251,1111122 
COMPS,ioos:station:USF.COMPS:SHP:1,2010-02-04T11:30:00Z,30.0600,-84.2910,0.243,1111122 
COMPS,ioos:station:USF.COMPS:SHP:1,2010-02-04T11:36:00Z,30.0600,-84.2910,0.224,1111122 
COMPS,ioos:station:USF.COMPS:SHP:1,2010-02-04T11:42:00Z,30.0600,-84.2910,0.209,1111122 
COMPS,ioos:station:USF.COMPS:SHP:1,2010-02-04T11:48:00Z,30.0600,-84.2910,0.195,1111122 
COMPS,ioos:station:USF.COMPS:SHP:1,2010-02-04T11:54:00Z,30.0600,-84.2910,0.187,1111122 
COMPS,ioos:station:USF.COMPS:SHP:1,2010-02-04T12:00:00Z,30.0600,-84.2910,0.181,1111122 
COMPS,ioos:station:USF.COMPS:SHP:1,2010-02-04T12:06:00Z,30.0600,-84.2910,0.174,1111122 
COMPS,ioos:station:USF.COMPS:SHP:1,2010-02-04T12:12:00Z,30.0600,-84.2910,0.162,1111122 
COMPS,ioos:station:USF.COMPS:SHP:1,2010-02-04T12:18:00Z,30.0600,-84.2910,0.148,1111122 
COMPS,ioos:station:USF.COMPS:SHP:1,2010-02-04T12:24:00Z,30.0600,-84.2910,0.134,1111122 
COMPS,ioos:station:USF.COMPS:SHP:1,2010-02-04T12:30:00Z,30.0600,-84.2910,0.116,1111122 
COMPS,ioos:station:USF.COMPS:SHP:1,2010-02-04T12:36:00Z,30.0600,-84.2910,0.101,1111122 
COMPS,ioos:station:USF.COMPS:SHP:1,2010-02-04T12:42:00Z,30.0600,-84.2910,0.086,1111122 
COMPS,ioos:station:USF.COMPS:SHP:1,2010-02-04T12:48:00Z,30.0600,-84.2910,0.073,1111122 
COMPS,ioos:station:USF.COMPS:SHP:1,2010-02-04T12:54:00Z,30.0600,-84.2910,0.061,1111122 
COMPS,ioos:station:USF.COMPS:SHP:1,2010-02-04T13:00:00Z,30.0600,-84.2910,0.042,1111122 
COMPS,ioos:station:USF.COMPS:SHP:1,2010-02-04T13:06:00Z,30.0600,-84.2910,0.018,1111122 
COMPS,ioos:station:USF.COMPS:SHP:1,2010-02-04T13:12:00Z,30.0600,-84.2910,0.002,1111122 
COMPS,ioos:station:USF.COMPS:SHP:1,2010-02-04T13:18:00Z,30.0600,-84.2910,-0.01,1111122 
COMPS,ioos:station:USF.COMPS:SHP:1,2010-02-04T13:24:00Z,30.0600,-84.2910,-0.018,1111122 
COMPS,ioos:station:USF.COMPS:SHP:1,2010-02-04T13:30:00Z,30.0600,-84.2910,-0.027,1111122 
COMPS,ioos:station:USF.COMPS:SHP:1,2010-02-04T13:36:00Z,30.0600,-84.2910,-0.044,1111122 
COMPS,ioos:station:USF.COMPS:SHP:1,2010-02-04T13:42:00Z,30.0600,-84.2910,-0.058,1111122 
COMPS,ioos:station:USF.COMPS:SHP:1,2010-02-04T13:48:00Z,30.0600,-84.2910,-0.066,1111122 
COMPS,ioos:station:USF.COMPS:SHP:1,2010-02-04T13:54:00Z,30.0600,-84.2910,-0.082,1111122 
COMPS,ioos:station:USF.COMPS:SHP:1,2010-02-04T14:00:00Z,30.0600,-84.2910,-0.102,1111122 
COMPS,ioos:station:USF.COMPS:SHP:1,2010-02-04T14:06:00Z,30.0600,-84.2910,-0.115,1111122 
COMPS,ioos:station:USF.COMPS:SHP:1,2010-02-04T14:12:00Z,30.0600,-84.2910,-0.125,1111122 
COMPS,ioos:station:USF.COMPS:SHP:1,2010-02-04T14:18:00Z,30.0600,-84.2910,-0.139,1111122 
COMPS,ioos:station:USF.COMPS:SHP:1,2010-02-04T14:24:00Z,30.0600,-84.2910,-0.152,1111122 
COMPS,ioos:station:USF.COMPS:SHP:1,2010-02-04T14:30:00Z,30.0600,-84.2910,-0.163,1111122 
COMPS,ioos:station:USF.COMPS:SHP:1,2010-02-04T14:36:00Z,30.0600,-84.2910,-0.174,1111122 
COMPS,ioos:station:USF.COMPS:SHP:1,2010-02-04T14:42:00Z,30.0600,-84.2910,-0.181,1111122 
COMPS,ioos:station:USF.COMPS:SHP:1,2010-02-04T14:48:00Z,30.0600,-84.2910,-0.183,1111122 
COMPS,ioos:station:USF.COMPS:SHP:1,2010-02-04T14:54:00Z,30.0600,-84.2910,-0.19,1111122 
COMPS,ioos:station:USF.COMPS:SHP:1,2010-02-04T15:00:00Z,30.0600,-84.2910,-0.198,1111122 
COMPS,ioos:station:USF.COMPS:SHP:1,2010-02-04T15:06:00Z,30.0600,-84.2910,-0.205,1111122 
COMPS,ioos:station:USF.COMPS:SHP:1,2010-02-04T15:12:00Z,30.0600,-84.2910,-0.207,1111122 
COMPS,ioos:station:USF.COMPS:SHP:1,2010-02-04T15:18:00Z,30.0600,-84.2910,-0.214,1111122 
COMPS,ioos:station:USF.COMPS:SHP:1,2010-02-04T15:24:00Z,30.0600,-84.2910,-0.222,1111122 
COMPS,ioos:station:USF.COMPS:SHP:1,2010-02-04T15:30:00Z,30.0600,-84.2910,-0.227,1111122 
COMPS,ioos:station:USF.COMPS:SHP:1,2010-02-04T15:36:00Z,30.0600,-84.2910,-0.235,1111122 
COMPS,ioos:station:USF.COMPS:SHP:1,2010-02-04T15:42:00Z,30.0600,-84.2910,-0.242,1111122 
COMPS,ioos:station:USF.COMPS:SHP:1,2010-02-04T15:48:00Z,30.0600,-84.2910,-0.249,1111122 
COMPS,ioos:station:USF.COMPS:SHP:1,2010-02-04T15:54:00Z,30.0600,-84.2910,-0.256,1111122 
COMPS,ioos:station:USF.COMPS:SHP:1,2010-02-04T16:00:00Z,30.0600,-84.2910,-0.255,1111122 
COMPS,ioos:station:USF.COMPS:SHP:1,2010-02-04T16:06:00Z,30.0600,-84.2910,-0.254,1111122 
COMPS,ioos:station:USF.COMPS:SHP:1,2010-02-04T16:12:00Z,30.0600,-84.2910,-0.251,1111122 
COMPS,ioos:station:USF.COMPS:SHP:1,2010-02-04T16:18:00Z,30.0600,-84.2910,-0.253,1111122 
COMPS,ioos:station:USF.COMPS:SHP:1,2010-02-04T16:24:00Z,30.0600,-84.2910,-0.254,1111122 
COMPS,ioos:station:USF.COMPS:SHP:1,2010-02-04T16:30:00Z,30.0600,-84.2910,-0.26,1111122 
COMPS,ioos:station:USF.COMPS:SHP:1,2010-02-04T16:36:00Z,30.0600,-84.2910,-0.258,1111122 
COMPS,ioos:station:USF.COMPS:SHP:1,2010-02-04T16:42:00Z,30.0600,-84.2910,-0.246,1111122 
COMPS,ioos:station:USF.COMPS:SHP:1,2010-02-04T16:48:00Z,30.0600,-84.2910,-0.233,1111122 
COMPS,ioos:station:USF.COMPS:SHP:1,2010-02-04T16:54:00Z,30.0600,-84.2910,-0.227,1111122 
COMPS,ioos:station:USF.COMPS:SHP:1,2010-02-04T17:00:00Z,30.0600,-84.2910,-0.22,1111122 
COMPS,ioos:station:USF.COMPS:SHP:1,2010-02-04T17:06:00Z,30.0600,-84.2910,-0.207,1111122 
COMPS,ioos:station:USF.COMPS:SHP:1,2010-02-04T17:12:00Z,30.0600,-84.2910,-0.19,1111122 
COMPS,ioos:station:USF.COMPS:SHP:1,2010-02-04T17:18:00Z,30.0600,-84.2910,-0.181,1111122 
COMPS,ioos:station:USF.COMPS:SHP:1,2010-02-04T17:24:00Z,30.0600,-84.2910,-0.182,1111122 
COMPS,ioos:station:USF.COMPS:SHP:1,2010-02-04T17:30:00Z,30.0600,-84.2910,-0.181,1111122 
COMPS,ioos:station:USF.COMPS:SHP:1,2010-02-04T17:36:00Z,30.0600,-84.2910,-0.173,1111122 
COMPS,ioos:station:USF.COMPS:SHP:1,2010-02-04T17:42:00Z,30.0600,-84.2910,-0.154,1111122 
COMPS,ioos:station:USF.COMPS:SHP:1,2010-02-04T17:48:00Z,30.0600,-84.2910,-0.13,1111122 
COMPS,ioos:station:USF.COMPS:SHP:1,2010-02-04T17:54:00Z,30.0600,-84.2910,-0.121,1111122 